Regional Weather Roundup
Issued by NWS

Home | Current Version | Previous Version | Text Only | Print | Product List | Glossary Off
Versions: 1 2 3 4 5 6 7 8 9 10 11 12 13 14 15 16 17 18 19 20 21 22 23 24 25 26 27 28 29 30 31 32 33 34 35 36 37 38 39 40 41 42 43 44 45 46 47 48 49 50

000
ASUS43 KMKX 030800
RWRWI

WISCONSIN REGIONAL WEATHER ROUNDUP
NATIONAL WEATHER SERVICE MILWAUKEE/SULLIVAN WI
300 AM CDT THU SEP 03 2015

NOTE: "FAIR" INDICATES FEW OR NO CLOUDS BELOW 12,000 FEET WITH NO
SIGNIFICANT WEATHER AND/OR OBSTRUCTIONS TO VISIBILITY.

WIZ001-002-006>008-014>016-023>028-030900-
NORTHWEST WISCONSIN

CITY           SKY/WX    TMP DP  RH WIND       PRES   REMARKS
SUPERIOR ARPT  FOG       59  59 100 CALM      29.97S VSB 1/2
ASHLAND        FOG       62  62 100 CALM      29.97S VSB 1/4
HAYWARD        PTCLDY    60  59  96 N6        29.96S FOG
SIREN          CLEAR     64  63  97 CALM      29.94S
CUMBERLAND     CLOUDY    64  63  94 CALM      29.94F
RICE LAKE      FOG       63  62  96 CALM      29.95S VSB 1/4
CHETEK         CLEAR    N/A N/A N/A CALM      29.93F
LADYSMITH      MOCLDY    65  64  95 CALM      29.97S
EAU CLAIRE     NOT AVBL
MENOMONIE        N/A     66  65  97 CALM      29.92S FOG
NEW RICHMOND   CLEAR     65  65 100 CALM      29.92F FOG
OSCEOLA        PTCLDY    66  66 100 CALM      29.94F
$$

WIZ003>005-009-010-017-018-030900-
NORTH CENTRAL WISCONSIN

CITY           SKY/WX    TMP DP  RH WIND       PRES   REMARKS
MANITOWISH WTR MOCLDY    62  62 100 CALM      29.98S
ARBOR VITAE    CLOUDY    65  63  95 CALM      29.98S
WOODRUFF       CLOUDY    65  63  95 CALM      29.98S
RHINELANDER    CLOUDY    65  63  93 CALM      29.97S
EAGLE RIVER    CLOUDY    64  64  97 E3        29.96F
LAND O LAKES   CLOUDY    64  64  99 CALM      29.98F FOG
PHILLIPS       CLOUDY    63  63 100 E3        29.96S FOG
TOMAHAWK       CLOUDY    64  63  97 NE3       29.97S
MEDFORD        CLOUDY    66  66 100 CALM      29.95S FOG
MERRILL        MOCLDY    65  65 100 CALM      29.95S
$$

WIZ029-030-035-036-043>047-030900-
CENTRAL WISCONSIN

CITY           SKY/WX    TMP DP  RH WIND       PRES   REMARKS
WAUSAU         MOCLDY    68  66  93 N3        29.92S
MOSINEE        CLOUDY    66  66 100 CALM      29.95S
MARSHFIELD     CLOUDY    70  65  84 NE5       29.94R
STEVENS POINT  CLOUDY    67  66  98 NE3       29.93S
WAUPACA        LGT RAIN  71  70  97 N3        29.92R
WAUTOMA        NOT AVBL
WISC RAPIDS    CLOUDY    71  68  90 NE5       29.93S
CAMP DOUGLAS   CLEAR     71  71 100 W8        29.90S
$$

WIZ011>013-019>022-031-037>040-048>050-030900-
NORTHEAST WISCONSIN

CITY           SKY/WX    TMP DP  RH WIND       PRES   REMARKS
ANTIGO         CLOUDY    65  65  98 NE3       29.94S
SHAWANO        NOT AVBL
OCONTO         CLOUDY    65  65 100 CALM      29.87F
STURGEON BAY   CLOUDY    66  63  88 E7        29.90F
GREEN BAY      LGT RAIN  69  68  96 SW5       29.88F FOG
MANITOWOC      NOT AVBL
APPLETON       TSTM      70  68  94 N13       29.90S
CLINTONVILLE   CLOUDY    68  68 100 NW5       29.89F
OSHKOSH        MOCLDY    73  68  84 VRB3      29.90R
$$

WIZ032>034-041-042-053>061-030900-
SOUTHWEST WISCONSIN

CITY           SKY/WX    TMP DP  RH WIND       PRES   REMARKS
LA CROSSE      CLEAR     73  69  87 CALM      29.89S
SPARTA         CLEAR     66  64  93 CALM      29.91S
VIROQUA          N/A     69  69 100 SW3       29.93S
BOSCOBEL       CLEAR     73  69  87 CALM      29.91S
PRAIRIE DU CHI MOCLDY    72  68  87 CALM      29.90F
PLATTEVILLE    MOCLDY    72  70  93 S6        29.93F
$$

WIZ056-057-062-063-064-067-068-030900-
SOUTH CENTRAL WISCONSIN

CITY           SKY/WX    TMP DP  RH WIND       PRES   REMARKS
REEDSBURG      CLEAR     74  69  85 W3        29.92R
BARABOO/DELLS  CLEAR     73  66  80 CALM      29.92S
LONE ROCK      NOT AVBL
MINERAL POINT  CLEAR     73  70  88 SW3       29.94S
MADISON        CLEAR     73  68  84 CALM      29.92S
MIDDLETON      CLEAR     75  67  78 W5        29.93S
WATERTOWN      CLOUDY    73  73 100 CALM      29.93R
MONROE         CLOUDY    75  68  78 SW13      29.94F
JANESVILLE     CLEAR     72  70  94 S3        29.93S
$$

WIZ051-052-058>065-066-070>072-030900-
SOUTHEAST WISCONSIN

CITY           SKY/WX    TMP DP  RH WIND       PRES   REMARKS
MILWAUKEE      PTCLDY    74  69  85 SW8       29.93R
WAUKESHA       PTCLDY    72  66  83 SW3       29.95S
MILWAUKEE/TIMM MOCLDY    72  68  88 SW3       29.94R
RACINE         PTCLDY    74  68  81 SW5       29.95S
BURLINGTON     PTCLDY    70  68  93 CALM      29.94S
KENOSHA        MOCLDY    73  68  84 SW5       29.94S
FOND DU LAC    MOCLDY    73  69  87 SW7       29.90F
SHEBOYGAN      PTCLDY    71  69  93 S5        29.89F FOG
WEST BEND      CLOUDY    70  66  88 CALM      29.92S
JUNEAU         CLOUDY    71  69  93 S5        29.94R
$$

LSZ147-162-030900-
LAKE SUPERIOR

STATION/POSITION TIME  TEMP    WIND        PRES    WAVE
                       AIR SEA DIR/SP/G            HT/PER
                 (UTC) (F)     (DEG/KT/KT) (MB)    (FT/S)
W MID LAKE BUOY  0650   57 56   30/  8/  8 1014.8F   0
DEVILS ISLAND    0700   57      20/ 11/ 12 1014.9F
PORT WING        0700   59      30/  9/ 11 1014.9F
SAXON HARBOR     0740   59        CALM     1014.2S
$$

LMZ867-665-643>646-030900-
LAKE MICHIGAN

STATION/POSITION TIME  TEMP    WIND        PRES    WAVE
                       AIR SEA DIR/SP/G            HT/PER
                 (UTC) (F)     (DEG/KT/KT) (MB)    (FT/S)
CHAMBERS ISLAND  0700   68      90/  7/  9 1012.5F
S GREEN BAY BUOY 0700   66 66   80/  6/  6 1013.5F
N MID LAKE BUOY  0650   67 66  360/ 14/ 16 1013.4R   1
NORTHPORT PIER   0700   67      70/ 12/ 13 1013.2F
SISTER BAY       0656   67     130/  3/  6   N/A
ALGOMA LAKESHORE 0714             CALM       N/A
KEWAUNEE LAKESHO 0700   55      60/  3/  5 1011.2F
SHEBOYGAN LAKESH 0700   71     230/  7/  7 1012.7F
PORT WASHINGTON  0700   65     220/  1/  6 1013.5F
ATWATER BUOY     0700   62     190/  6/  8 1014.6F
MILWAUKEE LAKESH 0710   69     210/  3/  4   N/A
S MID LAKE BUOY  0650   74 71  200/  6/  6 1013.2F   0
KENOSHA   LAKESH 0700   76     220/  6/  9 1013.2F
$$

TC  - TEMPERATURE IN CELSIUS
VSB - VISIBILITY IN STATUTE MILES
WCI - WIND CHILL INDEX
HX  - HEAT INDEX



USA.gov is the U.S. government's official web portal to all federal, state and local government web resources and services.